Wind_Speed
5 4 4 4 5 6 8 8 9 9 9 8 8 7 7 7 7 6 6 6 5 5 4 4 3 3 3 3 3 3 3 4 4 4 5 5 5 6 7 7 7 7 7
5 4 4 4 5 6 7 8 8 8 8 7 7 7 7 7 6 6 6 6 5 5 4 4 4 3 3 3 3 3 3 4 4 4 4 5 5 6 6 6 6 6 7
4 3 4 4 5 6 7 7 7 7 7 7 7 7 7 6 6 6 5 5 5 5 4 4 3 3 2 2 3 3 3 3 3 4 4 4 5 5 5 5 5 6 6
4 3 3 4 4 5 5 6 6 6 6 6 6 6 6 6 6 6 6 6 5 5 5 4 3 3 3 3 3 3 2 2 3 4 4 4 4 5 5 5 5 5 5
4 4 4 4 4 4 5 5 5 5 5 6 6 6 6 6 6 6 6 6 6 6 5 4 4 3 3 2 2 2 2 2 3 3 4 4 4 4 5 4 5 5 6
5 5 4 4 4 4 5 5 4 4 4 5 5 6 6 6 6 6 7 6 6 6 5 4 4 3 3 2 2 2 2 2 3 3 3 4 4 4 4 4 4 5 5
6 6 5 4 4 4 4 3 3 4 4 4 5 5 5 5 6 6 7 7 6 6 5 4 3 3 2 2 2 2 2 2 2 2 3 3 3 3 3 3 3 4 4
7 6 5 4 3 2 2 2 2 2 2 3 3 4 4 5 5 6 6 6 6 5 5 4 4 3 3 2 2 1 1 2 2 2 2 2 2 2 2 2 3 3 4
8 7 6 5 3 1 1 0 1 1 1 1 2 2 3 4 5 5 6 6 6 5 5 4 4 3 3 2 2 1 1 1 1 1 1 1 2 2 2 2 2 2 3
9 8 7 6 5 2 1 1 0 1 1 1 1 1 2 3 4 4 5 5 6 5 4 3 3 3 3 2 2 2 1 1 1 1 1 1 2 1 1 1 1 1 2
10 9 9 8 6 5 3 2 1 1 1 1 1 1 1 1 2 3 4 4 5 4 4 3 3 3 3 2 2 2 1 1 1 0 1 1 1 1 1 2 1 1 2
10 10 9 8 7 6 4 2 2 3 3 2 2 1 1 0 1 2 3 3 4 4 3 3 3 3 3 3 2 1 1 1 0 0 1 1 1 1 2 2 2 2 2
10 10 10 9 9 8 5 2 2 3 3 3 3 2 1 1 0 0 1 2 3 3 3 3 3 3 3 2 2 1 1 0 0 0 1 1 1 2 2 2 2 2 2
11 10 10 9 9 8 5 2 2 3 4 4 4 3 3 2 1 1 1 1 2 2 2 2 2 2 2 2 1 1 1 0 0 1 1 2 2 2 2 3 3 3 3
11 11 10 9 8 7 6 2 1 2 4 4 4 4 4 4 3 2 2 1 1 1 1 1 1 1 1 1 1 1 1 1 1 1 1 2 2 3 3 3 3 3 3
12 11 10 9 8 7 6 4 2 3 3 5 5 5 5 4 4 3 3 2 2 2 1 1 1 1 1 1 1 1 1 1 1 1 1 1 2 2 3 3 3 3 3
12 11 10 10 9 8 7 5 3 3 4 5 6 6 6 5 5 4 4 4 3 2 1 1 0 1 1 1 1 1 1 2 2 1 1 1 2 2 2 2 3 3 3
12 12 10 10 10 8 7 5 3 3 4 6 6 7 6 6 6 6 5 4 4 3 2 1 1 1 1 1 1 1 1 1 2 2 1 1 1 2 2 2 3 3 3
12 12 11 10 10 8 6 6 3 2 4 4 6 7 7 7 7 6 5 5 4 3 2 2 1 1 1 1 1 1 1 1 1 2 2 1 1 2 2 3 3 3 3
12 12 10 10 9 8 6 6 3 2 2 3 6 7 8 8 8 7 6 6 5 5 4 3 2 1 1 0 0 1 1 1 1 2 2 2 2 2 2 3 3 3 4
12 10 10 9 9 8 7 6 4 3 2 3 6 8 8 9 9 8 8 7 6 6 5 4 3 2 2 1 1 1 1 1 2 2 2 2 3 3 3 3 3 3 4
11 10 9 9 8 7 6 5 3 3 3 4 6 8 9 9 9 10 9 9 8 8 7 5 5 4 3 3 2 2 2 2 3 3 3 4 3 3 4 4 4 4 5
10 9 9 9 8 7 6 4 3 3 4 5 6 7 9 10 10 10 10 11 10 9 9 8 7 6 5 5 4 4 4 4 4 4 4 5 5 5 5 5 5 5 5
10 9 10 9 8 6 6 5 4 4 4 5 6 7 9 10 10 11 11 12 12 11 10 9 8 8 7 7 6 6 6 6 6 6 6 6 6 6 6 6 6 6 6
11 10 10 9 7 6 5 5 5 4 4 4 5 7 9 10 11 11 11 12 13 12 12 11 10 9 9 8 8 8 8 8 8 8 8 8 8 8 7 7 7 8 8
11 10 10 8 7 6 6 6 5 5 5 6 6 7 8 10 12 12 13 13 13 13 12 12 12 11 10 10 10 9 9 9 9 9 9 9 9 9 10 10 10 10 10
Wind_Direction
72 74 77 80 85 87 85 82 79 74 72 71 67 63 56 52 47 47 45 44 44 47 54 58 56 60 69 71 69 71 63 69 73 77 81 86 92 97 104 105 106 110 108
66 77 84 86 90 90 86 82 77 72 68 68 67 63 57 52 47 46 46 43 38 37 41 45 45 51 58 63 62 63 66 73 75 81 86 91 95 99 105 108 108 107 110
55 73 84 84 87 90 87 83 79 74 70 64 61 59 57 54 47 43 43 39 32 27 27 29 33 37 50 58 59 61 68 79 80 87 91 97 103 107 108 110 112 111 115
51 70 80 80 82 87 89 85 80 77 70 65 60 58 57 55 46 40 38 33 31 28 25 22 25 29 44 52 59 65 70 84 90 97 94 103 111 110 112 112 113 114 115
51 66 76 75 79 81 82 81 80 77 70 66 63 58 56 53 46 38 31 31 32 27 23 24 30 32 39 42 47 58 66 86 98 100 92 103 112 112 112 113 114 117 116
53 66 74 76 79 83 82 79 74 72 67 66 64 58 54 49 43 35 33 35 36 31 28 28 31 36 35 32 37 59 65 95 102 97 99 107 114 116 116 114 116 121 118
43 54 67 75 76 76 77 72 68 66 69 67 64 57 51 45 41 37 36 35 35 33 32 32 33 42 40 31 41 62 73 98 107 101 107 114 118 121 123 119 122 128 127
33 39 47 53 68 82 87 82 85 79 74 68 66 53 44 41 42 40 37 36 36 36 36 34 36 41 42 39 45 67 95 119 115 102 111 124 125 127 125 129 126 133 131
28 32 35 34 34 34 30 62 109 128 114 98 85 52 40 37 42 42 38 37 36 35 33 33 35 40 44 50 46 51 105 123 126 105 116 125 134 137 134 128 132 142 145
28 28 30 27 24 3 316 303 194 186 167 155 141 64 36 30 39 43 39 39 43 41 34 33 36 38 38 36 27 28 93 119 118 115 165 170 145 143 154 150 147 164 169
24 28 29 25 26 22 350 311 237 207 202 191 159 148 20 16 25 40 40 41 43 42 35 32 34 37 34 31 31 38 71 113 123 115 195 186 176 180 186 187 178 180 193
23 25 24 19 15 9 355 318 237 218 219 212 174 161 161 165 24 42 40 43 48 47 42 36 36 38 35 38 38 41 70 104 92 200 214 196 205 209 207 208 208 213 225
18 17 15 13 11 5 356 321 231 223 222 210 193 188 194 210 233 18 37 52 54 58 55 40 30 29 28 29 42 48 59 358 315 198 202 214 219 222 231 235 233 236 247
12 11 10 9 11 7 3 335 250 238 233 221 209 207 210 217 217 210 149 100 74 76 66 41 26 17 21 26 39 30 20 299 272 285 246 237 240 244 243 243 242 248 254
9 8 7 6 9 9 5 335 256 235 231 226 218 217 217 222 220 217 190 173 134 116 89 46 33 36 45 42 47 46 22 359 333 290 253 249 256 251 247 249 250 258 262
5 3 359 0 3 3 359 343 269 242 234 227 224 212 211 215 216 214 207 202 188 172 142 35 33 46 58 55 59 55 21 11 356 314 259 262 259 257 251 250 256 263 263
358 358 356 358 355 353 352 342 313 260 237 227 222 214 210 212 211 210 212 209 204 198 195 239 217 126 125 81 53 43 23 29 20 3 324 286 259 255 251 252 262 266 262
353 351 351 353 351 353 351 342 315 261 237 221 219 215 212 212 208 212 212 207 207 208 219 213 195 165 120 96 56 42 35 38 26 19 0 321 276 261 253 260 265 270 263
347 343 345 346 352 351 346 344 337 263 240 220 212 215 215 213 207 207 206 207 209 215 224 205 181 167 140 97 62 43 35 17 19 14 2 336 287 267 267 275 276 276 265
344 340 345 345 346 344 340 335 328 279 251 232 221 223 223 216 212 211 214 214 214 218 224 225 217 199 181 139 24 2 351 339 323 326 335 318 292 282 272 277 278 273 270
344 343 344 343 345 340 335 334 322 292 266 235 232 231 227 219 217 217 219 220 219 220 221 225 233 229 221 230 256 274 292 293 293 296 307 309 296 291 290 285 281 279 280
347 347 345 342 344 343 334 334 320 295 276 263 253 238 230 226 222 219 222 223 224 224 225 229 234 236 239 249 257 266 271 278 286 287 290 298 296 290 294 294 287 287 288
343 342 342 338 335 333 329 331 321 298 286 265 251 240 232 228 226 221 223 224 227 229 229 232 233 238 243 249 259 263 269 274 277 286 289 293 293 292 290 292 286 288 290
337 336 337 337 333 328 319 310 309 298 286 266 252 245 234 232 232 227 229 229 229 232 234 237 236 240 246 252 258 265 270 275 279 283 285 285 287 288 285 283 279 282 285
332 332 334 334 332 328 329 317 310 304 297 281 254 241 238 236 237 234 233 233 233 233 234 237 239 242 248 253 257 263 268 273 279 284 283 280 280 281 282 281 277 276 279
331 332 332 332 330 329 329 320 313 307 298 282 258 244 242 243 239 235 235 236 233 233 235 239 242 243 248 253 257 261 267 273 278 280 280 279 278 278 277 278 278 274 277
Height
5885 5885 5885 5885 5885 5886 5886 5887 5887 5889 5890 5890 5891 5892 5892 5893 5893 5894 5894 5894 5895 5895 5895 5895 5895 5896 5895 5896 5896 5896 5896 5896 5896 5896 5896 5896 5897 5897 5897 5897 5898 5898 5899
5886 5886 5886 5886 5886 5886 5887 5887 5888 5889 5890 5891 5892 5892 5893 5893 5894 5894 5895 5895 5895 5895 5896 5896 5896 5896 5896 5896 5896 5896 5896 5896 5897 5897 5897 5897 5897 5898 5898 5898 5899 5899 5900
5887 5886 5887 5887 5887 5887 5888 5888 5889 5890 5890 5891 5892 5893 5893 5894 5894 5895 5895 5896 5896 5896 5896 5896 5896 5896 5896 5896 5896 5896 5897 5897 5897 5897 5898 5898 5898 5898 5899 5899 5899 5900 5900
5887 5887 5887 5887 5887 5888 5888 5889 5889 5890 5891 5892 5892 5893 5894 5894 5895 5895 5896 5896 5896 5896 5896 5896 5896 5896 5896 5896 5897 5897 5897 5898 5898 5898 5899 5899 5899 5899 5899 5900 5900 5900 5901
5888 5888 5887 5888 5888 5888 5888 5889 5890 5890 5891 5892 5893 5893 5894 5895 5895 5896 5896 5896 5896 5896 5896 5896 5896 5896 5897 5897 5897 5897 5898 5898 5898 5899 5899 5899 5900 5900 5900 5900 5900 5901 5901
5889 5888 5888 5888 5888 5888 5889 5889 5890 5891 5891 5892 5893 5894 5894 5895 5895 5896 5896 5896 5896 5896 5896 5896 5896 5897 5897 5897 5897 5898 5898 5898 5899 5899 5900 5900 5900 5900 5901 5901 5901 5901 5902
5890 5889 5888 5888 5888 5889 5889 5889 5890 5891 5892 5892 5893 5894 5895 5895 5895 5896 5896 5896 5896 5897 5897 5897 5897 5897 5897 5897 5898 5898 5898 5899 5899 5900 5900 5900 5900 5901 5901 5901 5902 5902 5902
5890 5889 5889 5888 5889 5889 5889 5889 5890 5891 5892 5892 5893 5894 5895 5895 5896 5896 5896 5897 5897 5897 5897 5897 5897 5897 5897 5898 5898 5898 5899 5899 5900 5900 5900 5900 5901 5901 5901 5901 5902 5903 5903
5891 5890 5889 5889 5889 5889 5889 5889 5890 5891 5891 5892 5893 5894 5895 5895 5896 5896 5897 5897 5897 5897 5897 5897 5897 5897 5898 5898 5898 5898 5899 5899 5900 5900 5901 5901 5901 5902 5902 5902 5902 5903 5903
5892 5891 5890 5889 5889 5889 5889 5889 5889 5890 5891 5892 5893 5894 5895 5895 5896 5896 5897 5897 5897 5897 5898 5898 5898 5898 5898 5898 5899 5899 5899 5900 5900 5900 5901 5901 5902 5902 5902 5903 5903 5903 5904
5893 5891 5890 5889 5889 5888 5888 5889 5889 5890 5891 5892 5893 5893 5894 5895 5896 5896 5897 5897 5898 5898 5898 5898 5898 5898 5898 5899 5899 5899 5899 5900 5900 5901 5901 5901 5902 5902 5903 5903 5903 5904 5904
5893 5892 5891 5890 5889 5888 5888 5888 5889 5890 5890 5891 5892 5893 5894 5895 5896 5897 5897 5898 5898 5898 5898 5898 5899 5899 5899 5899 5899 5900 5900 5900 5901 5901 5901 5902 5902 5902 5903 5903 5904 5904 5904
5894 5892 5891 5890 5889 5888 5888 5888 5888 5889 5890 5891 5892 5893 5894 5895 5896 5896 5897 5898 5898 5899 5899 5899 5899 5899 5899 5900 5900 5900 5900 5900 5901 5901 5901 5902 5902 5903 5903 5903 5904 5904 5904
5895 5893 5892 5891 5889 5888 5888 5887 5888 5889 5890 5891 5892 5893 5894 5895 5895 5896 5897 5897 5898 5899 5899 5899 5900 5900 5900 5900 5900 5900 5900 5900 5901 5901 5901 5902 5902 5902 5903 5903 5903 5904 5904
5895 5894 5892 5891 5889 5888 5887 5887 5887 5888 5889 5890 5891 5892 5893 5894 5895 5896 5897 5897 5898 5899 5899 5899 5900 5900 5900 5900 5900 5900 5901 5901 5901 5901 5901 5901 5902 5902 5902 5903 5903 5903 5904
5895 5894 5892 5891 5889 5888 5887 5887 5887 5888 5889 5890 5891 5892 5893 5894 5895 5896 5896 5897 5898 5899 5899 5899 5900 5900 5900 5900 5900 5901 5901 5901 5901 5901 5901 5901 5902 5902 5902 5903 5903 5903 5903
5895 5894 5892 5890 5889 5888 5887 5886 5886 5887 5888 5889 5890 5891 5892 5893 5894 5895 5896 5897 5898 5899 5899 5899 5900 5900 5901 5901 5901 5901 5901 5901 5901 5901 5901 5901 5901 5902 5902 5902 5903 5903 5903
5895 5894 5892 5890 5888 5887 5887 5886 5885 5886 5887 5888 5889 5890 5891 5892 5894 5895 5896 5897 5898 5899 5899 5899 5900 5900 5901 5901 5901 5901 5901 5901 5901 5901 5901 5901 5901 5902 5902 5902 5902 5902 5902
5895 5893 5891 5889 5888 5886 5886 5886 5885 5885 5886 5887 5888 5889 5890 5892 5893 5894 5895 5896 5897 5898 5899 5899 5900 5900 5901 5901 5901 5901 5901 5901 5902 5902 5901 5901 5901 5902 5902 5902 5902 5902 5902
5894 5892 5891 5889 5887 5886 5885 5885 5884 5885 5885 5886 5887 5888 5890 5891 5892 5893 5895 5896 5897 5898 5899 5899 5900 5900 5901 5901 5901 5901 5902 5902 5902 5902 5901 5901 5901 5902 5901 5902 5902 5901 5901
5892 5891 5890 5889 5887 5885 5885 5884 5884 5884 5884 5885 5886 5887 5888 5890 5891 5892 5894 5895 5897 5898 5898 5899 5900 5900 5901 5901 5901 5902 5902 5902 5902 5902 5901 5901 5901 5901 5901 5901 5901 5901 5901
5892 5891 5889 5888 5886 5885 5884 5884 5883 5883 5884 5884 5885 5886 5887 5888 5890 5891 5893 5894 5896 5897 5898 5898 5899 5900 5900 5901 5901 5901 5901 5902 5901 5901 5901 5901 5901 5901 5901 5901 5901 5901 5901
5891 5890 5889 5887 5886 5885 5884 5883 5882 5882 5883 5883 5884 5884 5885 5887 5888 5890 5891 5893 5894 5896 5897 5898 5898 5899 5900 5900 5900 5901 5901 5901 5901 5901 5900 5900 5900 5900 5900 5900 5900 5900 5899
5891 5889 5888 5886 5885 5884 5882 5882 5881 5881 5882 5882 5883 5883 5884 5886 5887 5888 5890 5891 5893 5894 5895 5896 5897 5898 5898 5899 5899 5899 5900 5900 5900 5900 5900 5899 5899 5899 5899 5899 5898 5898 5898
5890 5888 5887 5885 5884 5883 5882 5881 5881 5880 5881 5881 5881 5882 5883 5884 5885 5887 5888 5889 5890 5892 5893 5894 5895 5896 5897 5897 5897 5898 5898 5898 5898 5898 5898 5898 5898 5898 5897 5897 5897 5896 5896
5888 5887 5885 5884 5883 5882 5881 5880 5880 5879 5879 5880 5880 5881 5881 5882 5883 5884 5886 5887 5888 5890 5891 5892 5893 5894 5895 5895 5896 5896 5896 5896 5896 5896 5896 5895 5895 5896 5895 5895 5894 5894 5894